P/2012 TK8 ( Tenagra ) 2021

Japanese version
Home page
Updated on November 4, 2020

---------------------------------------------------------------------

* Profile

* Orbital Elements

Epoch 2021 Nov. 2.0 TT = JDT 2459520.5
T 2021 Oct. 26.17704 TT                                 MPC
q   2.9953402            (2000.0)            P               Q
n   0.11753761     Peri.  128.03633     +0.54007126     -0.83511434
a   4.1274784      Node   288.96449     +0.73343824     +0.52787528
e   0.2742929      Incl.    6.34017     +0.41278491     +0.15469882
P   8.39
From 62 observations 2012 Oct. 6-2014 Apr. 2, mean residual 0".4.

* Magnitudes Graph

        m1 = 12.5 + 5 log d + 10.0 log r

---------------------------------------------------------------------

The orbital elements are published on M.P.E.C. 2014-G32.
The magnitudes graphs are made with Comet for Windows.

---------------------------------------------------------------------

Copyright(C) Seiichi Yoshida (comet@aerith.net). All rights reserved.